Regional Weather Roundup
Issued by NWS

Home | Current Version | Previous Version | Graphics & Text | Print | Product List | Glossary On
Versions: 1 2 3 4 5 6 7 8 9 10 11 12 13 14 15 16 17 18 19 20 21 22 23 24 25 26 27 28 29 30 31 32 33 34 35 36 37 38 39 40 41 42 43 44 45 46 47 48 49 50
000
ASUS43 KIND 220059
RWRIN

WEATHER ROUNDUP FOR INDIANA
NATIONAL WEATHER SERVICE INDIANAPOLIS IN
900 PM EDT SUN MAY 21 2017

NOTE: "FAIR" INDICATES FEW OR NO CLOUDS BELOW 12,000 FEET WITH NO
SIGNIFICANT WEATHER AND/OR OBSTRUCTIONS TO VISIBILITY.

* - STATION DOES NOT REPORT WEATHER SUCH AS PRECIPITATION OR FOG.

+ - STATION NOT QUALITY CONTROLLED BY THE NATIONAL WEATHER SERVICE.
    USE DATA WITH CAUTION...ESPECIALLY DEWPOINT AND RELATIVE
    HUMIDITY OBSERVATIONS.

INZ001>003-010>013-019-020-220200-
NORTHWEST INDIANA

CITY           SKY/WX    TMP DP  RH WIND       PRES   REMARKS
GARY /AIRPORT/ CLOUDY    55  43  62 W23       30.02R
MICHIGAN CITY+ CLOUDY    54  45  71 W13G20    30.00R
MONTICELLO +   CLOUDY    57  48  71 W8        30.02R
RENSSELAER +   CLOUDY    54  45  71 W20G28    30.03R

$$

LMZ046-743>745-220200-
SOUTHERN LAKE MICHIGAN

STATION/POSITION TIME  TEMP    WIND        PRES    WAVE
                       AIR SEA DIR/SP/G            HT
                 (UTC) (F)     (DEG/KT/KT) (MB)    (FT)
BURNS HARBOR     0040   54     270/ 22/ 25 1015.9R
MICHIGAN CITY    0030   54     250/ 21/ 23   N/A
5NW MICH CITY    0050   53 53  270/ 17/ 23   N/A     3

$$

INZ004-005-014>016-021>024-220200-
NORTH CENTRAL INDIANA

CITY           SKY/WX    TMP DP  RH WIND       PRES   REMARKS
GOSHEN         CLOUDY    59  47  64 W20       29.98R
SOUTH BEND     CLOUDY    57  46  66 W15G23    29.99R

$$

INZ006>009-017-018-025>027-220200-
NORTHEAST INDIANA

CITY           SKY/WX    TMP DP  RH WIND       PRES   REMARKS
ANGOLA *+      CLOUDY    63  54  72 W9        29.96R
FORT WAYNE     PTCLDY    62  51  67 W20G26    29.98R
KENDALLVILLE + CLOUDY    61  50  68 W9        29.97S

$$

INZ028-029-035-036-043>045-051>053-220200-
WEST CENTRAL INDIANA

CITY           SKY/WX    TMP DP  RH WIND       PRES   REMARKS
GREENCASTLE +  MOCLDY    61  48  63 W7        30.05R
LAFAYETTE      MOCLDY    56  48  74 W15       30.02R
TERRE HAUTE    MOCLDY    62  49  62 NW12      30.05R

$$

INZ030>032-037>040-046>048-054>057-064-065-220200-
CENTRAL INDIANA

CITY           SKY/WX    TMP DP  RH WIND       PRES   REMARKS
COLUMBUS       PTCLDY    68  48  49 W8        30.00R
INDIANAPOLIS   PTCLDY    62  50  64 NW12      30.01R
-EAGLE CREEK   PTCLDY    62  50  64 NW12      30.01R
KOKOMO +       CLOUDY    60  51  72 W18       30.01R
SHELBYVILLE    CLEAR     68  51  54 W10       29.99R

$$

INZ033-034-041-042-049-050-058-059-220200-
EAST CENTRAL INDIANA

CITY           SKY/WX    TMP DP  RH WIND       PRES   REMARKS
MUNCIE         MOCLDY    65  53  65 NW16      29.98R
RICHMOND +     PTCLDY    68  54  60 W14       29.99R

$$

INZ060-061-067>069-081>083-085>088-220200-
SOUTHWEST INDIANA

CITY           SKY/WX    TMP DP  RH WIND       PRES   REMARKS
EVANSVILLE     CLEAR     69  51  52 NW7       30.05R
HUNTINGBURG *+ CLEAR     66  56  70 W7        30.04R

$$

INZ062-063-066-070>080-084-089>092-220200-
SOUTH CENTRAL AND SOUTHEAST INDIANA

CITY           SKY/WX    TMP DP  RH WIND       PRES   REMARKS
BLOOMINGTON    PTCLDY    66  51  58 W7        30.02R
MADISON *+     CLEAR     68  59  73 W3        30.02R
SEYMOUR +      CLEAR     68  52  56 W9        30.00R

$$





USA.gov is the U.S. government's official web portal to all federal, state and local government web resources and services.